Year,Month,Day,Hour,Minute,Value (Times are PST for temperature in C)
2017,07,06,00,00,18.10
2017,07,06,00,01,18.10
2017,07,06,00,02,18.10
2017,07,06,00,03,18.10
2017,07,06,00,04,18.10
2017,07,06,00,05,18.10
2017,07,06,00,06,18.10
2017,07,06,00,07,18.00
2017,07,06,00,08,18.00
2017,07,06,00,09,18.00
2017,07,06,00,10,18.00
2017,07,06,00,11,17.90
2017,07,06,00,12,17.90
2017,07,06,00,13,17.90
2017,07,06,00,14,17.90
2017,07,06,00,15,17.90
2017,07,06,00,16,17.80
2017,07,06,00,17,17.80
2017,07,06,00,18,17.70
2017,07,06,00,19,17.70
2017,07,06,00,20,17.70
2017,07,06,00,21,17.70
2017,07,06,00,22,17.70
2017,07,06,00,23,17.60
2017,07,06,00,24,17.60
2017,07,06,00,25,17.60
2017,07,06,00,26,17.60
2017,07,06,00,27,17.70
2017,07,06,00,28,17.70
2017,07,06,00,29,17.70
2017,07,06,00,30,17.70
2017,07,06,00,31,17.70
2017,07,06,00,32,17.70
2017,07,06,00,33,17.70
2017,07,06,00,34,17.70
2017,07,06,00,35,17.70
2017,07,06,00,36,17.70
2017,07,06,00,37,17.60
2017,07,06,00,38,17.60
2017,07,06,00,39,17.60
2017,07,06,00,40,17.60
2017,07,06,00,41,17.60
2017,07,06,00,42,17.60
2017,07,06,00,43,17.50
2017,07,06,00,44,17.50
2017,07,06,00,45,17.50
2017,07,06,00,46,17.50
2017,07,06,00,47,17.40
2017,07,06,00,48,17.40
2017,07,06,00,49,17.40
2017,07,06,00,50,17.40
2017,07,06,00,51,17.30
2017,07,06,00,52,17.30
2017,07,06,00,53,17.30
2017,07,06,00,54,17.30
2017,07,06,00,55,17.30
2017,07,06,00,56,17.20
2017,07,06,00,57,17.20
2017,07,06,00,58,17.20
2017,07,06,00,59,17.20
2017,07,06,01,00,17.10
2017,07,06,01,01,17.10
2017,07,06,01,02,17.10
2017,07,06,01,03,17.10
2017,07,06,01,04,17.10
2017,07,06,01,05,17.10
2017,07,06,01,06,17.20
2017,07,06,01,07,17.20
2017,07,06,01,08,17.20
2017,07,06,01,09,17.20
2017,07,06,01,10,17.10
2017,07,06,01,11,17.10
2017,07,06,01,12,17.10
2017,07,06,01,13,17.10
2017,07,06,01,14,17.10
2017,07,06,01,15,17.00
2017,07,06,01,16,17.00
2017,07,06,01,17,17.00
2017,07,06,01,18,16.90
2017,07,06,01,19,16.90
2017,07,06,01,20,16.90
2017,07,06,01,21,16.90
2017,07,06,01,22,16.90
2017,07,06,01,23,16.90
2017,07,06,01,24,16.90
2017,07,06,01,25,16.90
2017,07,06,01,26,16.80
2017,07,06,01,27,16.80
2017,07,06,01,28,16.80
2017,07,06,01,29,16.70
2017,07,06,01,30,16.70
2017,07,06,01,31,16.70
2017,07,06,01,32,16.70
2017,07,06,01,33,16.60
2017,07,06,01,34,16.60
2017,07,06,01,35,16.60
2017,07,06,01,36,16.60
2017,07,06,01,37,16.50
2017,07,06,01,38,16.50
2017,07,06,01,39,16.50
2017,07,06,01,40,16.50
2017,07,06,01,41,16.40
2017,07,06,01,42,16.40
2017,07,06,01,43,16.40
2017,07,06,01,44,16.40
2017,07,06,01,45,16.30
2017,07,06,01,46,16.30
2017,07,06,01,47,16.30
2017,07,06,01,48,16.30
2017,07,06,01,49,16.30
2017,07,06,01,50,16.30
2017,07,06,01,51,16.20
2017,07,06,01,52,16.20
2017,07,06,01,53,16.20
2017,07,06,01,54,16.20
2017,07,06,01,55,16.20
2017,07,06,01,56,16.20
2017,07,06,01,57,16.10
2017,07,06,01,58,16.10
2017,07,06,01,59,16.10
2017,07,06,02,00,16.10
2017,07,06,02,01,16.10
2017,07,06,02,02,16.00
2017,07,06,02,03,16.00
2017,07,06,02,04,16.00
2017,07,06,02,05,15.90
2017,07,06,02,06,15.90
2017,07,06,02,07,15.90
2017,07,06,02,08,15.90
2017,07,06,02,09,15.90
2017,07,06,02,10,15.90
2017,07,06,02,11,15.90
2017,07,06,02,12,15.80
2017,07,06,02,13,15.80
2017,07,06,02,14,15.80
2017,07,06,02,15,15.80
2017,07,06,02,16,15.80
2017,07,06,02,17,15.80
2017,07,06,02,18,15.80
2017,07,06,02,19,15.70
2017,07,06,02,20,15.70
2017,07,06,02,21,15.70
2017,07,06,02,22,15.60
2017,07,06,02,23,15.60
2017,07,06,02,24,15.60
2017,07,06,02,25,15.60
2017,07,06,02,26,15.60
2017,07,06,02,27,15.50
2017,07,06,02,28,15.50
2017,07,06,02,29,15.50
2017,07,06,02,30,15.40
2017,07,06,02,31,15.40
2017,07,06,02,32,15.40
2017,07,06,02,33,15.40
2017,07,06,02,34,15.40
2017,07,06,02,35,15.40
2017,07,06,02,36,15.30
2017,07,06,02,37,15.30
2017,07,06,02,38,15.30
2017,07,06,02,39,15.30
2017,07,06,02,40,15.30
2017,07,06,02,41,15.30
2017,07,06,02,42,15.20
2017,07,06,02,43,15.20
2017,07,06,02,44,15.20
2017,07,06,02,45,15.20
2017,07,06,02,46,15.10
2017,07,06,02,47,15.10
2017,07,06,02,48,15.00
2017,07,06,02,49,15.00
2017,07,06,02,50,15.00
2017,07,06,02,51,15.00
2017,07,06,02,52,15.00
2017,07,06,02,53,15.00
2017,07,06,02,54,15.00
2017,07,06,02,55,15.00
2017,07,06,02,56,15.00
2017,07,06,02,57,15.00
2017,07,06,02,58,15.00
2017,07,06,02,59,15.00
2017,07,06,03,00,15.00
2017,07,06,03,01,15.00
2017,07,06,03,02,15.00
2017,07,06,03,03,15.00
2017,07,06,03,04,15.00
2017,07,06,03,05,14.90
2017,07,06,03,06,14.90
2017,07,06,03,07,14.90
2017,07,06,03,08,14.90
2017,07,06,03,09,14.80
2017,07,06,03,10,14.70
2017,07,06,03,11,14.70
2017,07,06,03,12,14.70
2017,07,06,03,13,14.70
2017,07,06,03,14,14.70
2017,07,06,03,15,14.60
2017,07,06,03,16,14.60
2017,07,06,03,17,14.60
2017,07,06,03,18,14.60
2017,07,06,03,19,14.60
2017,07,06,03,20,14.60
2017,07,06,03,21,14.60
2017,07,06,03,22,14.60
2017,07,06,03,23,14.60
2017,07,06,03,24,14.60
2017,07,06,03,25,14.60
2017,07,06,03,26,14.60
2017,07,06,03,27,14.50
2017,07,06,03,28,14.50
2017,07,06,03,29,14.50
2017,07,06,03,30,14.50
2017,07,06,03,31,14.50
2017,07,06,03,32,14.50
2017,07,06,03,33,14.50
2017,07,06,03,34,14.40
2017,07,06,03,35,14.40
2017,07,06,03,36,14.40
2017,07,06,03,37,14.40
2017,07,06,03,38,14.40
2017,07,06,03,39,14.40
2017,07,06,03,40,14.40
2017,07,06,03,41,14.40
2017,07,06,03,42,14.40
2017,07,06,03,43,14.40
2017,07,06,03,44,14.40
2017,07,06,03,45,14.40
2017,07,06,03,46,14.30
2017,07,06,03,47,14.30
2017,07,06,03,48,14.30
2017,07,06,03,49,14.30
2017,07,06,03,50,14.30
2017,07,06,03,51,14.30
2017,07,06,03,52,14.30
2017,07,06,03,53,14.30
2017,07,06,03,54,14.20
2017,07,06,03,55,14.20
2017,07,06,03,56,14.20
2017,07,06,03,57,14.20
2017,07,06,03,58,14.20
2017,07,06,03,59,14.20
2017,07,06,04,00,14.20
2017,07,06,04,01,14.20
2017,07,06,04,02,14.20
2017,07,06,04,03,14.20
2017,07,06,04,04,14.20
2017,07,06,04,05,14.10
2017,07,06,04,06,14.10
2017,07,06,04,07,14.10
2017,07,06,04,08,14.10
2017,07,06,04,09,14.10
2017,07,06,04,10,14.10
2017,07,06,04,11,14.10
2017,07,06,04,12,14.10
2017,07,06,04,13,14.10
2017,07,06,04,14,14.10
2017,07,06,04,15,14.10
2017,07,06,04,16,14.10
2017,07,06,04,17,14.10
2017,07,06,04,18,14.00
2017,07,06,04,19,14.00
2017,07,06,04,20,14.00
2017,07,06,04,21,13.90
2017,07,06,04,22,13.90
2017,07,06,04,23,13.90
2017,07,06,04,24,13.90
2017,07,06,04,25,13.90
2017,07,06,04,26,13.90
2017,07,06,04,27,13.90
2017,07,06,04,28,13.80
2017,07,06,04,29,13.80
2017,07,06,04,30,13.80
2017,07,06,04,31,13.80
2017,07,06,04,32,13.80
2017,07,06,04,33,13.80
2017,07,06,04,34,13.80
2017,07,06,04,35,13.80
2017,07,06,04,36,13.70
2017,07,06,04,37,13.70
2017,07,06,04,38,13.70
2017,07,06,04,39,13.70
2017,07,06,04,40,13.70
2017,07,06,04,41,13.70
2017,07,06,04,42,13.70
2017,07,06,04,43,13.70
2017,07,06,04,44,13.70
2017,07,06,04,45,13.70
2017,07,06,04,46,13.70
2017,07,06,04,47,13.70
2017,07,06,04,48,13.70
2017,07,06,04,49,13.70
2017,07,06,04,50,13.70
2017,07,06,04,51,13.70
2017,07,06,04,52,13.70
2017,07,06,04,53,13.70
2017,07,06,04,54,13.70
2017,07,06,04,55,13.60
2017,07,06,04,56,13.60
2017,07,06,04,57,13.60
2017,07,06,04,58,13.60
2017,07,06,04,59,13.60
2017,07,06,05,00,13.60
2017,07,06,05,01,13.50
2017,07,06,05,02,13.50
2017,07,06,05,03,13.50
2017,07,06,05,04,13.50
2017,07,06,05,05,13.50
2017,07,06,05,06,13.40
2017,07,06,05,07,13.40
2017,07,06,05,08,13.40
2017,07,06,05,09,13.40
2017,07,06,05,10,13.40
2017,07,06,05,11,13.40
2017,07,06,05,12,13.40
2017,07,06,05,13,13.40
2017,07,06,05,14,13.40
2017,07,06,05,15,13.40
2017,07,06,05,16,13.40
2017,07,06,05,17,13.40
2017,07,06,05,18,13.40
2017,07,06,05,19,13.30
2017,07,06,05,20,13.30
2017,07,06,05,21,13.30
2017,07,06,05,22,13.30
2017,07,06,05,23,13.30
2017,07,06,05,24,13.30
2017,07,06,05,25,13.30
2017,07,06,05,26,13.30
2017,07,06,05,27,13.30
2017,07,06,05,28,13.30
2017,07,06,05,29,13.20
2017,07,06,05,30,13.20
2017,07,06,05,31,13.20
2017,07,06,05,32,13.20
2017,07,06,05,33,13.20
2017,07,06,05,34,13.20
2017,07,06,05,35,13.10
2017,07,06,05,36,13.10
2017,07,06,05,37,13.10
2017,07,06,05,38,13.10
2017,07,06,05,39,13.10
2017,07,06,05,40,13.10
2017,07,06,05,41,13.00
2017,07,06,05,42,13.00
2017,07,06,05,43,13.00
2017,07,06,05,44,12.90
2017,07,06,05,45,12.90
2017,07,06,05,46,12.90
2017,07,06,05,47,12.90
2017,07,06,05,48,12.90
2017,07,06,05,49,12.90
2017,07,06,05,50,12.80
2017,07,06,05,51,12.80
2017,07,06,05,52,12.80
2017,07,06,05,53,12.80
2017,07,06,05,54,12.80
2017,07,06,05,55,12.80
2017,07,06,05,56,12.80
2017,07,06,05,57,12.80
2017,07,06,05,58,12.70
2017,07,06,05,59,12.70
2017,07,06,06,00,12.70
2017,07,06,06,01,12.70
2017,07,06,06,02,12.70
2017,07,06,06,03,12.70
2017,07,06,06,04,12.70
2017,07,06,06,05,12.70
2017,07,06,06,06,12.70
2017,07,06,06,07,12.60
2017,07,06,06,08,12.60
2017,07,06,06,09,12.60
2017,07,06,06,10,12.60
2017,07,06,06,11,12.60
2017,07,06,06,12,12.60
2017,07,06,06,13,12.50
2017,07,06,06,14,12.50
2017,07,06,06,15,12.50
2017,07,06,06,16,12.50
2017,07,06,06,17,12.50
2017,07,06,06,18,12.50
2017,07,06,06,19,12.50
2017,07,06,06,20,12.40
2017,07,06,06,21,12.40
2017,07,06,06,22,12.40
2017,07,06,06,23,12.40
2017,07,06,06,24,12.40
2017,07,06,06,25,12.40
2017,07,06,06,26,12.40
2017,07,06,06,27,12.40
2017,07,06,06,28,12.40
2017,07,06,06,29,12.40
2017,07,06,06,30,12.40
2017,07,06,06,31,12.40
2017,07,06,06,32,12.40
2017,07,06,06,33,12.40
2017,07,06,06,34,12.40
2017,07,06,06,35,12.40
2017,07,06,06,36,12.30
2017,07,06,06,37,12.30
2017,07,06,06,38,12.30
2017,07,06,06,39,12.30
2017,07,06,06,40,12.30
2017,07,06,06,41,12.30
2017,07,06,06,42,12.30
2017,07,06,06,43,12.30
2017,07,06,06,44,12.30
2017,07,06,06,45,12.30
2017,07,06,06,46,12.40
2017,07,06,06,47,12.40
2017,07,06,06,48,12.40
2017,07,06,06,49,12.40
2017,07,06,06,50,12.40
2017,07,06,06,51,12.40
2017,07,06,06,52,12.40
2017,07,06,06,53,12.40
2017,07,06,06,54,12.40
2017,07,06,06,55,12.40
2017,07,06,06,56,12.40
2017,07,06,06,57,12.40
2017,07,06,06,58,12.50
2017,07,06,06,59,12.50
2017,07,06,07,00,12.50
2017,07,06,07,01,12.50
2017,07,06,07,02,12.60
2017,07,06,07,03,12.60
2017,07,06,07,04,12.60
2017,07,06,07,05,12.70
2017,07,06,07,06,12.70
2017,07,06,07,07,12.70
2017,07,06,07,08,12.70
2017,07,06,07,09,12.80
2017,07,06,07,10,12.80
2017,07,06,07,11,12.80
2017,07,06,07,12,12.80
2017,07,06,07,13,12.80
2017,07,06,07,14,12.90
2017,07,06,07,15,12.90
2017,07,06,07,16,12.90
2017,07,06,07,17,13.00
2017,07,06,07,18,13.00
2017,07,06,07,19,13.10
2017,07,06,07,20,13.10
2017,07,06,07,21,13.20
2017,07,06,07,22,13.20
2017,07,06,07,23,13.30
2017,07,06,07,24,13.30
2017,07,06,07,25,13.40
2017,07,06,07,26,13.40
2017,07,06,07,27,13.50
2017,07,06,07,28,13.50
2017,07,06,07,29,13.60
2017,07,06,07,30,13.60
2017,07,06,07,31,13.70
2017,07,06,07,32,13.70
2017,07,06,07,33,13.70
2017,07,06,07,34,13.80
2017,07,06,07,35,13.80
2017,07,06,07,36,13.80
2017,07,06,07,37,13.80
2017,07,06,07,38,13.90
2017,07,06,07,39,13.90
2017,07,06,07,40,13.90
2017,07,06,07,41,13.90
2017,07,06,07,42,14.00
2017,07,06,07,43,14.00
2017,07,06,07,44,14.10
2017,07,06,07,45,14.10
2017,07,06,07,46,14.10
2017,07,06,07,47,14.20
2017,07,06,07,48,14.30
2017,07,06,07,49,14.30
2017,07,06,07,50,14.40
2017,07,06,07,51,14.50
2017,07,06,07,52,14.60
2017,07,06,07,53,14.60
2017,07,06,07,54,14.70
2017,07,06,07,55,14.70
2017,07,06,07,56,14.80
2017,07,06,07,57,14.80
2017,07,06,07,58,14.90
2017,07,06,07,59,15.00
2017,07,06,08,00,15.00
2017,07,06,08,01,15.00
2017,07,06,08,02,15.00
2017,07,06,08,03,15.10
2017,07,06,08,04,15.30
2017,07,06,08,05,15.40
2017,07,06,08,06,15.50
2017,07,06,08,07,15.60
2017,07,06,08,08,15.70
2017,07,06,08,09,15.80
2017,07,06,08,10,15.90
2017,07,06,08,11,16.10
2017,07,06,08,12,16.20
2017,07,06,08,13,16.30
2017,07,06,08,14,16.40
2017,07,06,08,15,16.50
2017,07,06,08,16,16.70
2017,07,06,08,17,16.80
2017,07,06,08,18,16.80
2017,07,06,08,19,16.90
2017,07,06,08,20,17.10
2017,07,06,08,21,17.10
2017,07,06,08,22,17.20
2017,07,06,08,23,17.40
2017,07,06,08,24,17.40
2017,07,06,08,25,17.50
2017,07,06,08,26,17.60
2017,07,06,08,27,17.60
2017,07,06,08,28,17.60
2017,07,06,08,29,17.60
2017,07,06,08,30,17.60
2017,07,06,08,31,17.60
2017,07,06,08,32,17.70
2017,07,06,08,33,17.70
2017,07,06,08,34,17.70
2017,07,06,08,35,17.80
2017,07,06,08,36,17.80
2017,07,06,08,37,17.90
2017,07,06,08,38,17.90
2017,07,06,08,39,18.00
2017,07,06,08,40,18.00
2017,07,06,08,41,17.90
2017,07,06,08,42,17.90
2017,07,06,08,43,17.90
2017,07,06,08,44,17.90
2017,07,06,08,45,17.90
2017,07,06,08,46,17.90
2017,07,06,08,47,18.00
2017,07,06,08,48,18.10
2017,07,06,08,49,18.10
2017,07,06,08,50,18.20
2017,07,06,08,51,18.20
2017,07,06,08,52,18.20
2017,07,06,08,53,18.20
2017,07,06,08,54,18.20
2017,07,06,08,55,18.20
2017,07,06,08,56,18.20
2017,07,06,08,57,18.20
2017,07,06,08,58,18.20
2017,07,06,08,59,18.30
2017,07,06,09,00,18.40
2017,07,06,09,01,18.40
2017,07,06,09,02,18.40
2017,07,06,09,03,18.50
2017,07,06,09,04,18.50
2017,07,06,09,05,18.50
2017,07,06,09,06,18.50
2017,07,06,09,07,18.50
2017,07,06,09,08,18.50
2017,07,06,09,09,18.50
2017,07,06,09,10,18.50
2017,07,06,09,11,18.50
2017,07,06,09,12,18.50
2017,07,06,09,13,18.50
2017,07,06,09,14,18.60
2017,07,06,09,15,18.60
2017,07,06,09,16,18.50
2017,07,06,09,17,18.50
2017,07,06,09,18,18.50
2017,07,06,09,19,18.60
2017,07,06,09,20,18.60
2017,07,06,09,21,18.70
2017,07,06,09,22,18.70
2017,07,06,09,23,18.80
2017,07,06,09,24,18.80
2017,07,06,09,25,18.80
2017,07,06,09,26,18.80
2017,07,06,09,27,18.90
2017,07,06,09,28,18.90
2017,07,06,09,29,18.90
2017,07,06,09,30,18.90
2017,07,06,09,31,19.00
2017,07,06,09,32,19.00
2017,07,06,09,33,19.10
2017,07,06,09,34,19.10
2017,07,06,09,35,19.20
2017,07,06,09,36,19.30
2017,07,06,09,37,19.30
2017,07,06,09,38,19.40
2017,07,06,09,39,19.50
2017,07,06,09,40,19.50
2017,07,06,09,41,19.60
2017,07,06,09,42,19.70
2017,07,06,09,43,19.70
2017,07,06,09,44,19.70
2017,07,06,09,45,19.90
2017,07,06,09,46,19.90
2017,07,06,09,47,19.90
2017,07,06,09,48,19.90
2017,07,06,09,49,19.90
2017,07,06,09,50,19.90
2017,07,06,09,51,19.90
2017,07,06,09,52,19.90
2017,07,06,09,53,19.90
2017,07,06,09,54,19.90
2017,07,06,09,55,20.00
2017,07,06,09,56,20.00
2017,07,06,09,57,20.10
2017,07,06,09,58,20.20
2017,07,06,09,59,20.30
2017,07,06,10,00,20.40
2017,07,06,10,01,20.50
2017,07,06,10,02,20.70
2017,07,06,10,03,20.80
2017,07,06,10,04,20.90
2017,07,06,10,05,21.10
2017,07,06,10,06,21.30
2017,07,06,10,07,21.40
2017,07,06,10,08,21.60
2017,07,06,10,09,21.70
2017,07,06,10,10,21.70
2017,07,06,10,11,21.80
2017,07,06,10,12,21.90
2017,07,06,10,13,22.00
2017,07,06,10,14,22.00
2017,07,06,10,15,22.10
2017,07,06,10,16,22.20
2017,07,06,10,17,22.20
2017,07,06,10,18,22.30
2017,07,06,10,19,22.30
2017,07,06,10,20,22.40
2017,07,06,10,21,22.50
2017,07,06,10,22,22.60
2017,07,06,10,23,22.70
2017,07,06,10,24,22.70
2017,07,06,10,25,22.70
2017,07,06,10,26,22.60
2017,07,06,10,27,22.50
2017,07,06,10,28,22.30
2017,07,06,10,29,22.30
2017,07,06,10,30,22.20
2017,07,06,10,31,22.30
2017,07,06,10,32,22.30
2017,07,06,10,33,22.40
2017,07,06,10,34,22.40
2017,07,06,10,35,22.50
2017,07,06,10,36,22.50
2017,07,06,10,37,22.70
2017,07,06,10,38,22.70
2017,07,06,10,39,22.70
2017,07,06,10,40,22.80
2017,07,06,10,41,22.80
2017,07,06,10,42,22.90
2017,07,06,10,43,22.90
2017,07,06,10,44,22.90
2017,07,06,10,45,22.80
2017,07,06,10,46,22.80
2017,07,06,10,47,22.80
2017,07,06,10,48,22.80
2017,07,06,10,49,22.80
2017,07,06,10,50,22.90
2017,07,06,10,51,22.90
2017,07,06,10,52,22.90
2017,07,06,10,53,23.00
2017,07,06,10,54,23.10
2017,07,06,10,55,23.10
2017,07,06,10,56,23.20
2017,07,06,10,57,23.30
2017,07,06,10,58,23.40
2017,07,06,10,59,23.40
2017,07,06,11,00,23.40
2017,07,06,11,01,23.40
2017,07,06,11,02,23.50
2017,07,06,11,03,23.60
2017,07,06,11,04,23.70
2017,07,06,11,05,23.70
2017,07,06,11,06,23.70
2017,07,06,11,07,23.80
2017,07,06,11,08,24.10
2017,07,06,11,09,24.20
2017,07,06,11,10,24.30
2017,07,06,11,11,24.40
2017,07,06,11,12,24.50
2017,07,06,11,13,24.70
2017,07,06,11,14,24.80
2017,07,06,11,15,24.90
2017,07,06,11,16,25.10
2017,07,06,11,17,25.20
2017,07,06,11,18,25.30
2017,07,06,11,19,25.40
2017,07,06,11,20,25.40
2017,07,06,11,21,25.40
2017,07,06,11,22,25.50
2017,07,06,11,23,25.40
2017,07,06,11,24,25.40
2017,07,06,11,25,25.30
2017,07,06,11,26,25.30
2017,07,06,11,27,25.40
2017,07,06,11,28,25.40
2017,07,06,11,29,25.50
2017,07,06,11,30,25.50
2017,07,06,11,31,25.60
2017,07,06,11,32,25.70
2017,07,06,11,33,25.70
2017,07,06,11,34,25.70
2017,07,06,11,35,25.80
2017,07,06,11,36,25.90
2017,07,06,11,37,25.90
2017,07,06,11,38,26.00
2017,07,06,11,39,26.10
2017,07,06,11,40,26.10
2017,07,06,11,41,26.00
2017,07,06,11,42,25.90
2017,07,06,11,43,25.80
2017,07,06,11,44,25.60
2017,07,06,11,45,25.50
2017,07,06,11,46,25.50
2017,07,06,11,47,25.50
2017,07,06,11,48,25.60
2017,07,06,11,49,25.70
2017,07,06,11,50,25.70
2017,07,06,11,51,25.80
2017,07,06,11,52,25.80
2017,07,06,11,53,25.70
2017,07,06,11,54,25.70
2017,07,06,11,55,25.90
2017,07,06,11,56,25.90
2017,07,06,11,57,25.90
2017,07,06,11,58,25.80
2017,07,06,11,59,25.90
2017,07,06,12,00,25.90
2017,07,06,12,01,25.80
2017,07,06,12,02,25.80
2017,07,06,12,03,25.70
2017,07,06,12,04,25.70
2017,07,06,12,05,25.70
2017,07,06,12,06,25.60
2017,07,06,12,07,25.60
2017,07,06,12,08,25.60
2017,07,06,12,09,25.60
2017,07,06,12,10,25.70
2017,07,06,12,11,25.70
2017,07,06,12,12,25.80
2017,07,06,12,13,25.90
2017,07,06,12,14,25.90
2017,07,06,12,15,25.90
2017,07,06,12,16,25.90
2017,07,06,12,17,25.90
2017,07,06,12,18,25.90
2017,07,06,12,19,25.90
2017,07,06,12,20,25.90
2017,07,06,12,21,25.90
2017,07,06,12,22,25.90
2017,07,06,12,23,25.90
2017,07,06,12,24,26.00
2017,07,06,12,25,26.10
2017,07,06,12,26,26.10
2017,07,06,12,27,26.10
2017,07,06,12,28,26.20
2017,07,06,12,29,26.30
2017,07,06,12,30,26.30
2017,07,06,12,31,26.40
2017,07,06,12,32,26.40
2017,07,06,12,33,26.50
2017,07,06,12,34,26.60
2017,07,06,12,35,26.60
2017,07,06,12,36,26.70
2017,07,06,12,37,26.70
2017,07,06,12,38,26.80
2017,07,06,12,39,26.80
2017,07,06,12,40,26.70
2017,07,06,12,41,26.70
2017,07,06,12,42,26.60
2017,07,06,12,43,26.50
2017,07,06,12,44,26.50
2017,07,06,12,45,26.50
2017,07,06,12,46,26.50
2017,07,06,12,47,26.40
2017,07,06,12,48,26.40
2017,07,06,12,49,26.40
2017,07,06,12,50,26.40
2017,07,06,12,51,26.40
2017,07,06,12,52,26.30
2017,07,06,12,53,26.30
2017,07,06,12,54,26.30
2017,07,06,12,55,26.30
2017,07,06,12,56,26.30
2017,07,06,12,57,26.40
2017,07,06,12,58,26.40
2017,07,06,12,59,26.40
2017,07,06,13,00,26.40
2017,07,06,13,01,26.50
2017,07,06,13,02,26.50
2017,07,06,13,03,26.40
2017,07,06,13,04,26.40
2017,07,06,13,05,26.40
2017,07,06,13,06,26.50
2017,07,06,13,07,26.60
2017,07,06,13,08,26.60
2017,07,06,13,09,26.70
2017,07,06,13,10,26.80
2017,07,06,13,11,26.80
2017,07,06,13,12,26.80
2017,07,06,13,13,26.90
2017,07,06,13,14,27.00
2017,07,06,13,15,27.00
2017,07,06,13,16,27.00
2017,07,06,13,17,26.90
2017,07,06,13,18,26.80
2017,07,06,13,19,26.70
2017,07,06,13,20,26.60
2017,07,06,13,21,26.60
2017,07,06,13,22,26.60
2017,07,06,13,23,26.60
2017,07,06,13,24,26.60
2017,07,06,13,25,26.60
2017,07,06,13,26,26.70
2017,07,06,13,27,26.80
2017,07,06,13,28,26.80
2017,07,06,13,29,26.90
2017,07,06,13,30,27.00
2017,07,06,13,31,27.20
2017,07,06,13,32,27.30
2017,07,06,13,33,27.30
2017,07,06,13,34,27.40
2017,07,06,13,35,27.40
2017,07,06,13,36,27.40
2017,07,06,13,37,27.40
2017,07,06,13,38,27.40
2017,07,06,13,39,27.30
2017,07,06,13,40,27.30
2017,07,06,13,41,27.30
2017,07,06,13,42,27.30
2017,07,06,13,43,27.30
2017,07,06,13,44,27.40
2017,07,06,13,45,27.40
2017,07,06,13,46,27.50
2017,07,06,13,47,27.50
2017,07,06,13,48,27.50
2017,07,06,13,49,27.50
2017,07,06,13,50,27.50
2017,07,06,13,51,27.40
2017,07,06,13,52,27.50
2017,07,06,13,53,27.50
2017,07,06,13,54,27.60
2017,07,06,13,55,27.60
2017,07,06,13,56,27.70
2017,07,06,13,57,27.70
2017,07,06,13,58,27.70
2017,07,06,13,59,27.70
2017,07,06,14,00,27.80
2017,07,06,14,01,27.80
2017,07,06,14,02,27.90
2017,07,06,14,03,27.90
2017,07,06,14,04,28.00
2017,07,06,14,05,28.10
2017,07,06,14,06,28.10
2017,07,06,14,07,28.10
2017,07,06,14,08,28.10
2017,07,06,14,09,28.00
2017,07,06,14,10,28.00
2017,07,06,14,11,28.00
2017,07,06,14,12,28.00
2017,07,06,14,13,28.00
2017,07,06,14,14,27.80
2017,07,06,14,15,27.80
2017,07,06,14,16,27.80
2017,07,06,14,17,27.80
2017,07,06,14,18,27.90
2017,07,06,14,19,28.00
2017,07,06,14,20,28.10
2017,07,06,14,21,28.20
2017,07,06,14,22,28.20
2017,07,06,14,23,28.20
2017,07,06,14,24,28.20
2017,07,06,14,25,28.20
2017,07,06,14,26,28.20
2017,07,06,14,27,28.20
2017,07,06,14,28,28.20
2017,07,06,14,29,28.20
2017,07,06,14,30,28.20
2017,07,06,14,31,28.30
2017,07,06,14,32,28.20
2017,07,06,14,33,28.20
2017,07,06,14,34,28.20
2017,07,06,14,35,28.20
2017,07,06,14,36,28.20
2017,07,06,14,37,28.20
2017,07,06,14,38,28.20
2017,07,06,14,39,28.30
2017,07,06,14,40,28.30
2017,07,06,14,41,28.30
2017,07,06,14,42,28.30
2017,07,06,14,43,28.30
2017,07,06,14,44,28.40
2017,07,06,14,45,28.40
2017,07,06,14,46,28.50
2017,07,06,14,47,28.50
2017,07,06,14,48,28.50
2017,07,06,14,49,28.60
2017,07,06,14,50,28.60
2017,07,06,14,51,28.60
2017,07,06,14,52,28.60
2017,07,06,14,53,28.70
2017,07,06,14,54,28.70
2017,07,06,14,55,28.70
2017,07,06,14,56,28.70
2017,07,06,14,57,28.70
2017,07,06,14,58,28.80
2017,07,06,14,59,28.80
2017,07,06,15,00,28.90
2017,07,06,15,01,28.90
2017,07,06,15,02,28.90
2017,07,06,15,03,28.90
2017,07,06,15,04,29.00
2017,07,06,15,05,29.00
2017,07,06,15,06,29.00
2017,07,06,15,07,29.10
2017,07,06,15,08,29.00
2017,07,06,15,09,28.90
2017,07,06,15,10,28.90
2017,07,06,15,11,28.90
2017,07,06,15,12,28.90
2017,07,06,15,13,29.00
2017,07,06,15,14,29.00
2017,07,06,15,15,29.00
2017,07,06,15,16,28.90
2017,07,06,15,17,29.00
2017,07,06,15,18,28.90
2017,07,06,15,19,28.90
2017,07,06,15,20,28.90
2017,07,06,15,21,28.90
2017,07,06,15,22,28.90
2017,07,06,15,23,28.80
2017,07,06,15,24,28.80
2017,07,06,15,25,28.80
2017,07,06,15,26,28.80
2017,07,06,15,27,28.80
2017,07,06,15,28,28.80
2017,07,06,15,29,28.90
2017,07,06,15,30,28.90
2017,07,06,15,31,29.00
2017,07,06,15,32,29.10
2017,07,06,15,33,29.20
2017,07,06,15,34,29.20
2017,07,06,15,35,29.20
2017,07,06,15,36,29.20
2017,07,06,15,37,29.20
2017,07,06,15,38,29.20
2017,07,06,15,39,29.10
2017,07,06,15,40,29.10
2017,07,06,15,41,29.20
2017,07,06,15,42,29.20
2017,07,06,15,43,29.20
2017,07,06,15,44,29.10
2017,07,06,15,45,29.10
2017,07,06,15,46,29.00
2017,07,06,15,47,29.00
2017,07,06,15,48,28.90
2017,07,06,15,49,28.80
2017,07,06,15,50,28.80
2017,07,06,15,51,28.80
2017,07,06,15,52,28.80
2017,07,06,15,53,28.70
2017,07,06,15,54,28.80
2017,07,06,15,55,28.80
2017,07,06,15,56,28.80
2017,07,06,15,57,28.90
2017,07,06,15,58,29.00
2017,07,06,15,59,29.00
2017,07,06,16,00,29.00
2017,07,06,16,01,29.10
2017,07,06,16,02,29.10
2017,07,06,16,03,29.10
2017,07,06,16,04,29.10
2017,07,06,16,05,29.10
2017,07,06,16,06,29.10
2017,07,06,16,07,29.00
2017,07,06,16,08,28.90
2017,07,06,16,09,28.90
2017,07,06,16,10,28.90
2017,07,06,16,11,28.90
2017,07,06,16,12,28.80
2017,07,06,16,13,28.90
2017,07,06,16,14,28.90
2017,07,06,16,15,28.90
2017,07,06,16,16,28.90
2017,07,06,16,17,28.90
2017,07,06,16,18,28.90
2017,07,06,16,19,28.90
2017,07,06,16,20,28.90
2017,07,06,16,21,28.90
2017,07,06,16,22,28.90
2017,07,06,16,23,28.80
2017,07,06,16,24,28.80
2017,07,06,16,25,28.80
2017,07,06,16,26,28.80
2017,07,06,16,27,28.80
2017,07,06,16,28,28.80
2017,07,06,16,29,28.80
2017,07,06,16,30,28.80
2017,07,06,16,31,28.80
2017,07,06,16,32,28.80
2017,07,06,16,33,28.80
2017,07,06,16,34,28.80
2017,07,06,16,35,28.80
2017,07,06,16,36,28.80
2017,07,06,16,37,28.80
2017,07,06,16,38,28.80
2017,07,06,16,39,28.80
2017,07,06,16,40,28.80
2017,07,06,16,41,28.80
2017,07,06,16,42,28.90
2017,07,06,16,43,28.90
2017,07,06,16,44,28.90
2017,07,06,16,45,29.00
2017,07,06,16,46,29.00
2017,07,06,16,47,29.00
2017,07,06,16,48,29.10
2017,07,06,16,49,29.10
2017,07,06,16,50,29.20
2017,07,06,16,51,29.20
2017,07,06,16,52,29.30
2017,07,06,16,53,29.30
2017,07,06,16,54,29.40
2017,07,06,16,55,29.40
2017,07,06,16,56,29.40
2017,07,06,16,57,29.40
2017,07,06,16,58,29.40
2017,07,06,16,59,29.40
2017,07,06,17,00,29.40
2017,07,06,17,01,29.40
2017,07,06,17,02,29.40
2017,07,06,17,03,29.40
2017,07,06,17,04,29.30
2017,07,06,17,05,29.30
2017,07,06,17,06,29.20
2017,07,06,17,07,29.20
2017,07,06,17,08,29.20
2017,07,06,17,09,29.10
2017,07,06,17,10,29.10
2017,07,06,17,11,29.00
2017,07,06,17,12,29.00
2017,07,06,17,13,29.00
2017,07,06,17,14,29.00
2017,07,06,17,15,29.00
2017,07,06,17,16,29.00
2017,07,06,17,17,29.00
2017,07,06,17,18,29.00
2017,07,06,17,19,29.00